Regional & State Weather Roundups


970 
ASUS44 KFWD 252010
RWRFWD
NORTH TEXAS HOURLY WEATHER ROUNDUP
NATIONAL WEATHER SERVICE FORT WORTH TX
300 PM CDT THU APR 25 2019
NOTE: "FAIR" INDICATES FEW OR NO CLOUDS BELOW 12,000 FEET WITH NO
SIGNIFICANT WEATHER AND/OR OBSTRUCTIONS TO VISIBILITY.
TXZ118-119-252100-
DALLAS/FORT WORTH METROPLEX
  
CITY           SKY/WX    TMP DP  RH WIND       PRES   REMARKS
DFW AIRPORT    FAIR      79  55  43 NW12G22   29.85S                  
DALLAS LOVE    FAIR      80  56  43 NW9       29.85S                  
FTW MEACHAM    FAIR      77  57  50 NW9G21    29.86S                  
DAL-EXECUTIVE  FAIR      77  55  46 NW14      29.85R                  
FTW-ALLIANCE   FAIR      79  57  46 NW13      29.86S                  
FTW-NAS-JRB    FAIR      81  53  37 N9        29.87S                  
FTW-SPINKS     MOSUNNY   79  55  44 NW9       29.88S                  
ARLINGTON      FAIR      80  55  42 NW15      29.86S                  
GRAND PRAIRIE  SUNNY     79  52  38 N12G17    29.88R                  
ADDISON        SUNNY     79  54  41 NW9G18    29.87R                  
MESQUITE       MOSUNNY   79  54  41 W14       29.86R                  
LANCASTER      FAIR      76  59  55 NW7G17    29.87S                  
$$
TXZ091>094-102>105-117-120-121-131>134-252100-
NORTH CENTRAL TEXAS
  
CITY           SKY/WX    TMP DP  RH WIND       PRES   REMARKS
SHRMAN/DENISON SUNNY     77  57  50 W12       29.87R                  
GAINESVILLE    FAIR      77  55  45 N6        29.88S                  
BOWIE          FAIR      78  57  47 N9G20     29.88S                  
BRIDGEPORT     FAIR      79  55  43 NW6       29.90S                  
DECATUR        FAIR      78  52  39 N9        29.88R                  
DENTON         FAIR      79  54  41 N14       29.86S                  
MCKINNEY       FAIR      78  58  49 NW13      29.85S                  
BONHAM         FAIR      75  56  51 NW9       29.85S                  
GREENVILLE     FAIR      81  55  41 NW13      29.85S                  
ROCKWALL       FAIR      76  57  51 N10G16    29.86R                  
TERRELL        FAIR      78  53  41 NW14G22   29.85S                  
WAXAHACHIE     FAIR      78  58  49 NW13G20   29.87S                  
CLEBURNE       FAIR      79  61  53 NW7       29.90S                  
GRANBURY       FAIR      80  56  43 MISG      29.90R                  
$$
TXZ083>090-098>101-113>116-127>130-139>142-154-155-252100-
WESTERN NORTH TEXAS
  
CITY           SKY/WX    TMP DP  RH WIND       PRES   REMARKS
WICHITA FALLS  FAIR      81  57  43 N8        29.88R                  
WF-KICKAPOO    FAIR      80  53  39 N9G21     29.91S                  
VERNON         FAIR      81  54  38 N9        29.93R                  
ABILENE        FAIR      82  53  36 N13       29.95R                  
GRAHAM         FAIR      79  53  40 NW9       29.90R                  
BRECKENRIDGE   FAIR      81  53  38 NW7       29.92S HAZE             
CISCO          FAIR      79  55  44 N9G18     29.93S                  
EASTLAND       FAIR      77  55  46 N9        29.93R                  
MINERAL WELLS  FAIR      79  56  45 NW12      29.87S                  
STEPHENVILLE   FAIR      79  55  43 NW10      29.93S                  
COMANCHE       FAIR      79  57  47 NW9       29.92S                  
BROWNWOOD      FAIR      81  55  41 NW14      29.92S                  
COLEMAN        FAIR      81  51  34 NW9       29.94S                  
BRADY          FAIR      81  50  34 NW16      29.94S                  
$$
TXZ143>147-156>162-174-175-252100-
CENTRAL TEXAS
  
CITY           SKY/WX    TMP DP  RH WIND       PRES   REMARKS
WACO           FAIR      81  61  50 NW10      29.86S                  
WACO-TSTC      SUNNY     81  59  47 NW10G17   29.87S                  
WACO-MCGREGOR  FAIR     N/A N/A N/A NW10      29.87S                  
HILLSBORO      FAIR      78  62  58 NW10      29.87S                  
CORSICANA      FAIR      78  60  53 NW10      29.87S                  
MEXIA          FAIR      76  60  56 NW7G20    29.86S                  
HEARNE         FAIR      78  65  63 W6        29.87F                  
CAMERON        FAIR      80  62  53 NW8       29.87S                  
TEMPLE           N/A     81  61  50 NW8       29.88S                  
KILLEEN        FAIR      82  55  38 NW15G21   29.88R                  
KILLEEN-SKYLRK FAIR      82  57  42 NW8G16    29.88S                  
FORT HOOD      FAIR      82  56  41 N13       29.84S                  
GATESVILLE     FAIR      81  55  41 NW9       29.90S                  
HAMILTON       FAIR      80  58  46 NW10      29.91S                  
LAMPASAS       FAIR      80  58  46 NW12      29.90R                  
$$
TXZ095>097-106>112-122>126-135>138-148>153-164>167-252100-
EAST TEXAS
  
CITY           SKY/WX    TMP DP  RH WIND       PRES   REMARKS
PARIS          PTSUNNY   74  61  63 N15       29.85R                  
SULPHUR SPRNGS FAIR      76  59  54 NW12      29.86S                  
MOUNT PLEASANT FAIR      75  58  54 W15       29.84R                  
GILMER         PTSUNNY   74  59  59 NW8       29.82S                  
MINEOLA        FAIR      75  57  53 NW12G17   29.84S                  
TYLER          FAIR      77  54  44 NW13      29.83S                  
LONGVIEW       PTSUNNY   77  61  57 NW12      29.81S                  
MARSHALL       CLOUDY    73  58  60 NW10      29.83S                  
ATHENS         PTSUNNY   75  57  53 NW3       29.84R                  
PALESTINE      FAIR      77  60  54 W8G17     29.86S                  
JACKSONVILLE   FAIR      76  58  52 NW12G17   29.86S                  
HENDERSON      PTSUNNY   74  58  57 NW8G17    29.84S                  
CENTER         CLOUDY    74  57  55 NW7       29.84                   
NACOGDOCHES    PTSUNNY   74  61  63 NW12      29.84S                  
LUFKIN         FAIR      75  58  55 NW8       29.83S                  
$$
SUPPLEMENTAL OBSERVATIONS (NWS FORT WORTH AREA)
  
CITY           SKY/WX    TMP DP  RH WIND       PRES   REMARKS
CADDO GRASSLND   N/A     77  59  53 NW6         N/A                   
LBJ GRASSLAND    N/A     81  52  36 N8          N/A                   
POSSUM KINGDOM   N/A     81  52  36 NW8G17      N/A                   
GRANBURY         N/A     79  57  47 N12         N/A                   
MCGREGOR         N/A     82  61  47 NW6         N/A                   
TEMPLE           N/A     82  61  47 W12         N/A                   
PALESTINE        N/A     79  59  50 NW8         N/A                   
$$
SUPPLEMENTAL OBSERVATIONS (NWS NORMAN AREA)
  
CITY           SKY/WX    TMP DP  RH WIND       PRES   REMARKS
GOODLETT         N/A     83  52  34 N10       29.92S                  
ODELL            N/A     81  53  37 NW14      29.92S                  
CROWELL          N/A     81  51  35 N6        29.94R                  
KNOX CITY        N/A     83  48  29 N6        29.94R                  
SEYMOUR          N/A     82  49  30 N12       29.91S                  
MILLERS CREEK    N/A     82  48  30 NW7         N/A                   
$$
SUPPLEMENTAL OBSERVATIONS (NWS SAN ANGELO AREA)
  
CITY           SKY/WX    TMP DP  RH WIND       PRES   REMARKS
WEINERT          N/A     81  48  30 N7        29.93S                  
HASKELL          N/A     80  53  39 NW6       29.93S                  
THROCKMORTON     N/A     80  54  40 NW8       29.92S                  
STAMFORD         N/A     81  53  37 N10       29.95R                  
CLYDE            N/A     79  54  41 NW10      29.96R                  
HAMBY            N/A     81  52  36 N7          N/A                   
$$
SUPPLEMENTAL OBSERVATIONS (NWS SHREVEPORT AREA)
  
CITY           SKY/WX    TMP DP  RH WIND       PRES   REMARKS
TEXARKANA        N/A     75  59  57 W8G16       N/A                   
LINDEN           N/A     75  57  53 W8G18       N/A                   
LUFKIN           N/A     79  59  50 MISG        N/A                   
N SABINE NF      N/A     77  63  61 MISG        N/A                   
$$
SUPPLEMENTAL OBSERVATIONS ARE A COLLECTION OF AUTOMATED INSTRUMENTS
THAT ARE MAINTAINED BY A VARIETY OF FEDERAL AND STATE AGENCIES. 
CERTAIN ELEMENTS...SUCH AS HUMIDITY VALUES AND SUSTAINED WIND 
SPEEDS...MAY BE APPROXIMATED.
  

972 
ASUS44 KFWD 252010
RWRTX 
NORTH TEXAS HOURLY WEATHER ROUNDUP
NATIONAL WEATHER SERVICE FORT WORTH TX
300 PM CDT THU APR 25 2019
NOTE: "FAIR" INDICATES FEW OR NO CLOUDS BELOW 12,000 FEET WITH NO
SIGNIFICANT WEATHER AND/OR OBSTRUCTIONS TO VISIBILITY.
TXZ118-119-252100-
DALLAS/FORT WORTH METROPLEX
  
CITY           SKY/WX    TMP DP  RH WIND       PRES   REMARKS
DFW AIRPORT    FAIR      79  55  43 NW12G22   29.85S                  
DALLAS LOVE    FAIR      80  56  43 NW9       29.85S                  
FTW MEACHAM    FAIR      77  57  50 NW9G21    29.86S                  
DAL-EXECUTIVE  FAIR      77  55  46 NW14      29.85R                  
FTW-ALLIANCE   FAIR      79  57  46 NW13      29.86S                  
FTW-NAS-JRB    FAIR      81  53  37 N9        29.87S                  
FTW-SPINKS     MOSUNNY   79  55  44 NW9       29.88S                  
ARLINGTON      FAIR      80  55  42 NW15      29.86S                  
GRAND PRAIRIE  SUNNY     79  52  38 N12G17    29.88R                  
ADDISON        SUNNY     79  54  41 NW9G18    29.87R                  
MESQUITE       MOSUNNY   79  54  41 W14       29.86R                  
LANCASTER      FAIR      76  59  55 NW7G17    29.87S                  
$$
TXZ091>094-102>105-117-120-121-131>134-252100-
NORTH CENTRAL TEXAS
  
CITY           SKY/WX    TMP DP  RH WIND       PRES   REMARKS
SHRMAN/DENISON SUNNY     77  57  50 W12       29.87R                  
GAINESVILLE    FAIR      77  55  45 N6        29.88S                  
BOWIE          FAIR      78  57  47 N9G20     29.88S                  
BRIDGEPORT     FAIR      79  55  43 NW6       29.90S                  
DECATUR        FAIR      78  52  39 N9        29.88R                  
DENTON         FAIR      79  54  41 N14       29.86S                  
MCKINNEY       FAIR      78  58  49 NW13      29.85S                  
BONHAM         FAIR      75  56  51 NW9       29.85S                  
GREENVILLE     FAIR      81  55  41 NW13      29.85S                  
ROCKWALL       FAIR      76  57  51 N10G16    29.86R                  
TERRELL        FAIR      78  53  41 NW14G22   29.85S                  
WAXAHACHIE     FAIR      78  58  49 NW13G20   29.87S                  
CLEBURNE       FAIR      79  61  53 NW7       29.90S                  
GRANBURY       FAIR      80  56  43 MISG      29.90R                  
$$
TXZ083>090-098>101-113>116-127>130-139>142-154-155-252100-
WESTERN NORTH TEXAS
  
CITY           SKY/WX    TMP DP  RH WIND       PRES   REMARKS
WICHITA FALLS  FAIR      81  57  43 N8        29.88R                  
WF-KICKAPOO    FAIR      80  53  39 N9G21     29.91S                  
VERNON         FAIR      81  54  38 N9        29.93R                  
ABILENE        FAIR      82  53  36 N13       29.95R                  
GRAHAM         FAIR      79  53  40 NW9       29.90R                  
BRECKENRIDGE   FAIR      81  53  38 NW7       29.92S HAZE             
CISCO          FAIR      79  55  44 N9G18     29.93S                  
EASTLAND       FAIR      77  55  46 N9        29.93R                  
MINERAL WELLS  FAIR      79  56  45 NW12      29.87S                  
STEPHENVILLE   FAIR      79  55  43 NW10      29.93S                  
COMANCHE       FAIR      79  57  47 NW9       29.92S                  
BROWNWOOD      FAIR      81  55  41 NW14      29.92S                  
COLEMAN        FAIR      81  51  34 NW9       29.94S                  
BRADY          FAIR      81  50  34 NW16      29.94S                  
$$
TXZ143>147-156>162-174-175-252100-
CENTRAL TEXAS
  
CITY           SKY/WX    TMP DP  RH WIND       PRES   REMARKS
WACO           FAIR      81  61  50 NW10      29.86S                  
WACO-TSTC      SUNNY     81  59  47 NW10G17   29.87S                  
WACO-MCGREGOR  FAIR     N/A N/A N/A NW10      29.87S                  
HILLSBORO      FAIR      78  62  58 NW10      29.87S                  
CORSICANA      FAIR      78  60  53 NW10      29.87S                  
MEXIA          FAIR      76  60  56 NW7G20    29.86S                  
HEARNE         FAIR      78  65  63 W6        29.87F                  
CAMERON        FAIR      80  62  53 NW8       29.87S                  
TEMPLE           N/A     81  61  50 NW8       29.88S                  
KILLEEN        FAIR      82  55  38 NW15G21   29.88R                  
KILLEEN-SKYLRK FAIR      82  57  42 NW8G16    29.88S                  
FORT HOOD      FAIR      82  56  41 N13       29.84S                  
GATESVILLE     FAIR      81  55  41 NW9       29.90S                  
HAMILTON       FAIR      80  58  46 NW10      29.91S                  
LAMPASAS       FAIR      80  58  46 NW12      29.90R                  
$$
TXZ095>097-106>112-122>126-135>138-148>153-164>167-252100-
EAST TEXAS
  
CITY           SKY/WX    TMP DP  RH WIND       PRES   REMARKS
PARIS          PTSUNNY   74  61  63 N15       29.85R                  
SULPHUR SPRNGS FAIR      76  59  54 NW12      29.86S                  
MOUNT PLEASANT FAIR      75  58  54 W15       29.84R                  
GILMER         PTSUNNY   74  59  59 NW8       29.82S                  
MINEOLA        FAIR      75  57  53 NW12G17   29.84S                  
TYLER          FAIR      77  54  44 NW13      29.83S                  
LONGVIEW       PTSUNNY   77  61  57 NW12      29.81S                  
MARSHALL       CLOUDY    73  58  60 NW10      29.83S                  
ATHENS         PTSUNNY   75  57  53 NW3       29.84R                  
PALESTINE      FAIR      77  60  54 W8G17     29.86S                  
JACKSONVILLE   FAIR      76  58  52 NW12G17   29.86S                  
HENDERSON      PTSUNNY   74  58  57 NW8G17    29.84S                  
CENTER         CLOUDY    74  57  55 NW7       29.84                   
NACOGDOCHES    PTSUNNY   74  61  63 NW12      29.84S                  
LUFKIN         FAIR      75  58  55 NW8       29.83S                  
$$
SUPPLEMENTAL OBSERVATIONS (NWS FORT WORTH AREA)
  
CITY           SKY/WX    TMP DP  RH WIND       PRES   REMARKS
CADDO GRASSLND   N/A     77  59  53 NW6         N/A                   
LBJ GRASSLAND    N/A     81  52  36 N8          N/A                   
POSSUM KINGDOM   N/A     81  52  36 NW8G17      N/A                   
GRANBURY         N/A     79  57  47 N12         N/A                   
MCGREGOR         N/A     82  61  47 NW6         N/A                   
TEMPLE           N/A     82  61  47 W12         N/A                   
PALESTINE        N/A     79  59  50 NW8         N/A                   
$$
SUPPLEMENTAL OBSERVATIONS (NWS NORMAN AREA)
  
CITY           SKY/WX    TMP DP  RH WIND       PRES   REMARKS
GOODLETT         N/A     83  52  34 N10       29.92S                  
ODELL            N/A     81  53  37 NW14      29.92S                  
CROWELL          N/A     81  51  35 N6        29.94R                  
KNOX CITY        N/A     83  48  29 N6        29.94R                  
SEYMOUR          N/A     82  49  30 N12       29.91S                  
MILLERS CREEK    N/A     82  48  30 NW7         N/A                   
$$
SUPPLEMENTAL OBSERVATIONS (NWS SAN ANGELO AREA)
  
CITY           SKY/WX    TMP DP  RH WIND       PRES   REMARKS
WEINERT          N/A     81  48  30 N7        29.93S                  
HASKELL          N/A     80  53  39 NW6       29.93S                  
THROCKMORTON     N/A     80  54  40 NW8       29.92S                  
STAMFORD         N/A     81  53  37 N10       29.95R                  
CLYDE            N/A     79  54  41 NW10      29.96R                  
HAMBY            N/A     81  52  36 N7          N/A                   
$$
SUPPLEMENTAL OBSERVATIONS (NWS SHREVEPORT AREA)
  
CITY           SKY/WX    TMP DP  RH WIND       PRES   REMARKS
TEXARKANA        N/A     75  59  57 W8G16       N/A                   
LINDEN           N/A     75  57  53 W8G18       N/A                   
LUFKIN           N/A     79  59  50 MISG        N/A                   
N SABINE NF      N/A     77  63  61 MISG        N/A                   
$$
SUPPLEMENTAL OBSERVATIONS ARE A COLLECTION OF AUTOMATED INSTRUMENTS
THAT ARE MAINTAINED BY A VARIETY OF FEDERAL AND STATE AGENCIES. 
CERTAIN ELEMENTS...SUCH AS HUMIDITY VALUES AND SUSTAINED WIND 
SPEEDS...MAY BE APPROXIMATED.